Voltar ao catálogo

STARLINK-4147

AtivoComunicaçõesVLEO
NORAD 53256·PAYLOAD·🇺🇸 United States

Lançado Jul 24, 2022 de Cape Canaveral Space Force Station

Loading…

Próximas Passagens (próximas 24 horas)

TLE

AtualizadoSource: CelesTrak SupGP

Época: Sep 15, 2026, 02:57 UTC

1 53256C 22086Q   26258.12340278  .00676480  00000+0  24745-1 0  2580
2 53256  53.1608  62.2571 0001174  76.7775 255.5424 15.27186385    15

Acompanhe STARLINK-4147 em tempo real com AllMySat

Download on the App Store